#timestamp,LO_Frequency,Hit,StdDev 
1569186015.5,286046999.9,N
1569186035.3,286046999.3,N
1569186055.2,286046999.0,N
1569186075.0,286046998.3,N
1569186075.9,286046998.3,N
1569186095.8,286046998.9,N
1569186115.6,286046998.8,N
1569186135.4,286047000.4,N
1569186155.3,286047000.5,N
1569186175.1,286046998.6,N
1569186195.9,286046998.5,N
1569186215.7,286046998.5,N
1569186235.5,286046999.1,N
1569186255.4,286046998.4,N
1569186275.2,286046996.5,Y
1569186295.0,286046998.4,P
1569186295.9,286046998.4,P
1569186315.8,286047002.2,P
1569186335.6,286047002.7,N
1569186355.5,286047000.0,N
1569186375.3,286046998.7,N
1569186395.1,286047000.8,N
1569186415.9,286046998.6,N
1569186435.7,286047001.0,N
1569186455.6,286047002.1,N
1569186475.4,286047001.3,N
1569186495.2,286047004.4,N
1569186515.1,286047004.4,N
1569186516.0,286047004.4,N
1569186535.8,286047001.7,N
1569186555.7,286047002.8,N
1569186575.5,286047002.6,N
1569186595.3,286046999.9,N
1569186615.2,286047000.9,N
1569186635.0,286047002.6,N
1569186635.9,286047002.6,N
1569186655.8,286047000.2,N
1569186675.6,286047002.5,N
1569186695.4,286047003.9,N
1569186715.3,286047003.4,N
1569186735.1,286047004.4,N
1569186755.8,286047003.8,N
1569186775.7,286047001.5,N
1569186795.5,286047002.3,N
1569186815.4,286047002.7,N
1569186835.2,286047003.6,N
1569186855.0,286047003.9,N
1569186855.9,286047003.9,N
1569186875.8,286047003.6,N
1569186895.6,286047003.4,N
1569186915.4,286047004.0,N
1569186935.3,286047006.0,Y
1569186955.1,286046999.8,P
1569186975.9,286047000.6,N
1569186995.7,286047000.7,N
1569187015.5,286047001.0,N
1569187035.4,286047000.4,N
1569187055.2,286047000.5,N
1569187075.1,286046999.9,N
1569187076.0,286046999.9,N
1569187095.8,286046998.2,N
1569187115.6,286047000.4,N
1569187135.5,286046999.7,N
1569187155.3,286047000.9,N
1569187175.2,286047002.2,N
1569187195.9,286047000.0,N
1569187215.7,286046999.6,N
1569187235.6,286046996.9,Y
1569187255.4,286046998.8,P
1569187275.3,286046996.5,P
1569187295.1,286046999.3,N
1569187296.0,286046999.3,N
1569187315.8,286046999.4,N
1569187335.7,286047000.6,N
1569187355.5,286047000.0,N
1569187375.3,286047001.7,N
1569187395.2,286047004.3,Y
1569187415.0,286047003.5,P
1569187415.9,286047003.5,N
1569187435.8,286047004.0,N
1569187455.6,286047001.9,N
1569187475.4,286047002.8,N
1569187495.3,286047001.5,N
1569187515.1,286047002.6,N
1569187535.9,286047001.8,N
1569187555.7,286047000.1,N
1569187575.5,286047002.1,N
1569187595.4,286047001.8,N
1569187615.2,286047002.4,N
1569187635.1,286047002.7,N
1569187636.0,286047002.7,N
1569187685.8,286047000.6,E
1569187695.7,286047001.0,N
1569187715.6,286046998.9,P
1569187735.4,286047000.8,N
1569187755.2,286047001.2,N
1569187775.1,286046998.7,N
1569187776.0,286046998.7,N
1569187795.8,286046999.1,N
1569187815.7,286046998.7,N
1569187835.5,286047000.1,N
1569187855.3,286047002.6,N
1569187875.2,286047002.2,N
1569187895.0,286047002.6,N
1569187895.9,286047002.6,N
1569187915.8,286047000.3,N
1569187935.6,286047000.2,N
1569187955.4,286047000.6,N
1569187975.3,286047000.9,N
1569187995.1,286046999.9,N
1569188015.9,286047001.6,N
1569188035.7,286047000.1,N
1569188055.5,286046998.6,N
1569188075.4,286047001.0,N
1569188095.2,286047000.1,N
1569188115.0,286047002.8,N
1569188115.9,286047002.8,N
1569188135.8,286047000.6,N
1569188155.6,286046998.5,N
1569188175.5,286046999.0,N
1569188195.3,286046998.1,N
1569188215.1,286046999.7,N
1569188235.9,286046999.8,N
1569188255.7,286047001.0,N
1569188275.6,286047000.4,N
1569188295.4,286046999.8,N
1569188315.2,286046999.7,N
1569188335.1,286047000.9,N
1569188336.0,286047000.9,N
1569188355.8,286047000.1,N
1569188375.6,286047002.5,N
1569188395.5,286047001.6,N
1569188415.3,286047002.5,N
1569188435.2,286047000.9,N
1569188455.9,286047001.1,N
1569188475.7,286047001.1,N
1569188495.6,286046998.5,N
1569188515.4,286046998.3,N
1569188535.3,286047001.2,N
1569188555.1,286046999.9,N
1569188556.0,286046999.9,N
1569188575.8,286047001.0,N
1569188595.7,286047001.2,N
1569188615.5,286047000.3,N
1569188635.3,286047001.0,N
1569188655.2,286047000.0,N
1569188675.0,286047000.1,N
1569188675.9,286047000.1,N
1569188695.8,286047001.1,N
1569188715.6,286047001.0,N
1569188735.4,286047002.8,N
1569188755.3,286047002.2,N
1569188775.1,286047002.3,N
1569188795.8,286047002.1,N
1569188815.7,286047001.4,N
1569188835.5,286047002.0,N
1569188855.4,286047002.7,N
1569188875.2,286047002.0,N
1569188895.0,286047004.1,Y
1569188895.9,286047004.1,P
1569188915.8,286047002.6,N
1569188935.6,286047003.9,P
1569188955.5,286047003.7,Y
1569188975.3,286047000.0,P
1569188995.1,286047000.0,N
1569189015.9,286047000.1,N
1569189035.7,286047002.0,N
1569189055.5,286047004.4,Y
1569189075.4,286047001.8,P
1569189095.2,286047003.6,P
1569189115.1,286047003.8,P
1569189116.0,286047003.8,Y
1569189135.8,286047002.7,P
1569189155.6,286047002.7,P
1569189175.5,286047002.0,P
1569189195.3,286047001.4,Y
1569189215.2,286046998.6,P
1569189235.0,286046996.6,N
1569189235.9,286046996.6,N
1569189255.7,286046999.3,N
1569189275.6,286046997.3,N
1569189295.4,286046997.9,N
1569189315.3,286046996.0,N
1569189335.1,286046995.0,N
1569189355.8,286046995.1,N
1569189375.7,286046995.8,N
1569189395.5,286046995.5,N
1569189415.4,286046995.6,N
1569189435.2,286046996.1,N
1569189455.0,286046996.4,N
1569189455.9,286046996.4,N
1569189475.8,286046993.4,Y
1569189495.6,286046995.1,P
1569189515.5,286046995.0,P
1569189535.3,286046997.8,N
1569189555.1,286046997.3,N
1569189575.9,286046996.9,N
1569189595.8,286046996.6,Y
